SL-16 DEB, 22617

Orbit data source: Space-Track

SL-16 DEB, 22617 is space debris in LEO originally from a launch on Fri, 26 Mar 1993 UTC launched from the Tyuratam Missile And Space Complex (TTMTR). Debris objects in space refer to the collection of defunct objects orbiting the Earth. Examples of debris include non-operational satellites, rocket bodies, and fragments generated from explosions, collisions, or faulty payload assembly.

Loading next visibility...
Identifier
22617, 1993-016AB
Orbit
LEO
Last TLE update
15 hours ago
Origin
Manufacturer
Unknown
Mission
Spacecraft
Bus & Motor
Unknown
Mass
Unknown
Launch date (UTC)
1993-03-26 (32 years ago)
Launch vehicle
Unknown
Launch site
Tyuratam Missile And Space Complex (TTMTR)
Object type
Payload
Rocket body
Debris
Shape & HBR
Unknown
Radar Cross Section
Small (<0.1 m²)

Expand to show TLE details & history

TLE from 15 hours ago
0 SL-16 DEB
1 22617U 93016AB  25128.61143612  .00000572  00000-0  45083-3 0  9996
2 22617  70.9992 201.1766 0133059  20.9410  49.4590 13.91842146624211
Epoch: 2025-05-08T14:40Z
Definitive object data (Epoch: 2025-05-08T14:40:28.08Z)
Latitude
63.87469°
Longitude
158.67914°
Altitude
870.247 km
Speed
7.455 km/s
True Right ascension
16h 21m 54s
True Declination
63° 44' 26"
Sunlit
Object was in daylight at TLE epoch
Visualization TLE readout
Latitude
5.27061°
Longitude
114.90977°
Altitude
829.831 km
Speed
7.486 km/s
Apparent Right ascension
12h 15m 31s
Apparent Declination
-54° 16' 18"
Sunlit
Object is in full shadow
Visualization observer readout
Local Sidereal Time
14:02:07
Azimuth
195.297° SSW
Elevation
-6.927°
Doppler factor
1
Orbital elements
Apogee altitude
1,017.239 km
Perigee altitude
823.019 km
Semi-major axis
7,298.266 km
Eccentricity
0.0133059
Inclination
70.9992°
RAAN
201.1766°
Arg. of periapsis
20.941°
True anomaly
50.63029°
Mean anomaly
49.459°
Eccentric anomaly
50.04338°
Mean motion
3.48108 °/min
BSTAR
0.00045083
Orbital period
103.42 mins
Loading maneuver chart data...
Loading SW <> Apogee altitude chart data...
Loading historical data...
Loading historical data...
Loading historical data...
Loading historical data...
Loading historical data...
Loading historical data...
Loading historical data...

SL-16 DEB Visibility forecast

Observer location: undefined°, undefined°

Span
Click to sort rows by Start time (UTC) header in descending order
Start Az.
Max El. time (UTC)
Max El. Az.
Max El.
End time (UTC)
End Az.
10 mins2025-05-09 05:58:22.464Z191.624° SSW2025-05-09 06:03:22.464Z118.735° SE43.058°2025-05-09 06:08:22.464Z28.798° NE
6 mins2025-05-09 07:47:22.464Z278.647° WNW2025-05-09 07:50:22.464Z316.35° NNW16.795°2025-05-09 07:53:22.464Z349.53° N
10 mins2025-05-09 15:02:22.464Z357.718° N2025-05-09 15:07:22.464Z70.392° E31.267°2025-05-09 15:12:22.464Z125.12° SE
9 mins2025-05-09 16:48:22.464Z312.233° NW2025-05-09 16:52:22.464Z260.528° W29.772°2025-05-09 16:57:22.464Z197.285° SSW
|